Hourly Data Report for October 25, 2015

All times are specified in Local Standard Time (LST). Add 1 hour to adjust for Daylight Saving Time where and when it is observed.

BAKER LAKE A
NUNAVUT

64°17'56.000" N
96°04'40.000" W
18.60 m
2300503
71926
YBK

Download Data

Hourly Data (October 2015)
Hourly Data Report for October 25, 2015
Temp Definition
°C
Dew Point Temp Definition
°C
Rel Hum Definition
%
Wind Dir Definition
10's deg

Wind Spd Definition
km/h
Visibility Definition
km
Stn Press Definition
kPa
Hmdx Definition


Wind Chill Definition


Weather Definition


TIME
00:00 Legend Double Dagger -14.1 -16.7 81 31 34 24.1 101.17   -25 Blowing Snow
01:00 Legend Double Dagger -13.1 -16.2 78 31 33 24.1 101.15   -24 Blowing Snow
02:00 Legend Double Dagger -12.6 -15.7 78 30 31 24.1 101.17   -23 Blowing Snow
03:00 Legend Double Dagger -13.2 -16.3 78 29 27 24.1 101.16   -23 Blowing Snow
04:00 Legend Double Dagger -13.7 -16.8 78 30 30 24.1 101.17   -24 Blowing Snow
05:00 Legend Double Dagger -14.1 -17.3 77 31 37 24.1 101.17   -26 Blowing Snow
06:00 Legend Double Dagger -12.3 -16.2 73 30 40 24.1 101.17   -24 Blowing Snow
07:00 Legend Double Dagger -12.2 -15.6 76 31 41 24.1 101.21   -24 Blowing Snow
08:00 Legend Double Dagger -13.4 -16.6 77 31 39 24.1 101.22   -25 Blowing Snow
09:00 Legend Double Dagger -12.4 -15.6 77 31 43 24.1 101.24   -24 Blowing Snow
10:00 Legend Double Dagger -12.0 -15.4 76 30 38 24.1 101.22   -23 Snow,Blowing Snow
11:00 Legend Double Dagger -12.1 -15.4 77 31 49 12.9 101.17   -25 Snow,Blowing Snow
12:00 Legend Double Dagger -12.1 -16.5 70 30 41 24.1 101.22   -24 Blowing Snow
13:00 Legend Double Dagger -12.5 -16.2 74 29 30 24.1 101.22   -23 Blowing Snow
14:00 Legend Double Dagger -13.9 -16.8 79 30 37 4.8 101.14   -26 Snow,Blowing Snow
15:00 Legend Double Dagger -14.7 -17.9 77 31 45 12.9 101.12   -28 Blowing Snow
16:00 Legend Double Dagger -15.1 -18.6 75 30 53 16.1 101.05   -29 Blowing Snow
17:00 Legend Double Dagger -14.7 -17.6 79 31 46 12.9 101.12   -28 Blowing Snow
18:00 Legend Double Dagger -14.7 -17.3 81 28 26 24.1 101.15   -25 Blowing Snow
19:00 Legend Double Dagger -15.4 -18.3 79 30 43 16.1 101.05   -28 Blowing Snow
20:00 Legend Double Dagger -14.7 -17.4 80 31 49 16.1 101.00   -28 Blowing Snow
21:00 Legend Double Dagger -14.9 -17.6 80 31 50 16.1 100.97   -28 Blowing Snow
22:00 Legend Double Dagger -14.8 -17.5 80 31 50 16.1 100.91   -28 Blowing Snow
23:00 Legend Double Dagger -14.7 -17.4 80 31 48 16.1 100.91   -28 Blowing Snow

Notes on Data Quality.

Legend

  • E = Estimated
  • M = Missing
  • NA = Not Available
  • ‡ = Partner data that is not subject to review by the National Climate Archives
Date modified: